User: anonymous   Login
Location: Unspecified
(0.0000°N, 0.0000°E)
Time: 09:18:52
(UTC+00:00)
Language:

COSMOS 2400 - Orbit

View from above orbital plane
View from above orbital plane
View from above satellite
View from above satellite

Ground track
Ground track

The orbit data is extracted from the following two-line orbital elements,

1 27868U 03037A   17269.07846889  .00000004  00000-0 -39757-4 0  9999
2 27868  82.4739 167.4896 0021211 185.8686 174.2152 12.45131188641115
Epoch (UTC): 26 September 2017 01:52:59
Eccentricity: 0.0021211
inclination: 82.4739°
perigee height: 1468 km
apogee height: 1501 km
right ascension of ascending node: 167.4896°
argument of perigee: 185.8686°
revolutions per day: 12.45131188
mean anomaly at epoch: 174.2152°
orbit number at epoch: 64111

The dashed part of the orbit path shows where the satellite is in the earth's shadow,  

DLR